Tracking 32991 objects as of 23-Jan-2026
HD Live streaming from Space Station
objects crossing your sky now

GONETS M 19

Track GONETS M 19 now!
10-day predictions


NORAD ID: 46488
Int'l Code: 2020-068C
Perigee: 1,491.0 km
Apogee: 1,512.1 km
Inclination: 82.5 °
Period: 115.9 minutes
Semi major axis: 7872 km
RCS: Unknown
Launch date: September 28, 2020
Source: Commonwealth of Independent States (former USSR) (CIS)
Launch site: PLESETSK MISSILE AND SPACE COMPLEX (PKMTR)
Your satellite tracking list
Your tracking list is empty




NASA's NSSDC Master Catalog

Two Line Element Set (TLE):
1 46488U 20068C   26022.52958441  .00000066  00000-0  40521-3 0  9993
2 46488  82.4932  77.7201 0013400  10.1535 349.9812 12.42886731241158
Source of the keplerian elements: AFSPC